GFSSGP_700_temp_048.txt.gz
Temp
13 13 13 13 13 13 13 13 13 13 12 13 13 12 11 10 11 10 10 10 10 11 11 11 11 11 11 11 11 11 11 11 11 11 11 11 11 11 11 11 11 11 11 11 10 10 10 10 10
13 13 13 13 12 13 13 13 12 12 13 13 13 12 11 10 9 10 10 10 10 11 11 11 11 11 11 11 11 11 11 11 11 11 11 11 11 11 11 11 10 10 10 10 10 10 10 10 10
13 13 14 13 13 12 13 12 12 12 12 13 12 12 12 10 10 10 9 10 10 10 11 11 11 11 11 11 11 11 11 11 11 11 11 11 11 11 11 11 11 10 10 10 10 10 10 10 10
13 13 14 14 13 13 12 12 13 13 12 12 12 12 11 10 9 10 9 9 10 10 10 10 11 11 11 11 11 11 11 11 11 11 11 11 11 11 11 11 11 11 10 11 10 10 10 10 10
13 13 14 14 13 12 12 12 12 12 12 12 12 11 11 10 9 10 9 9 9 10 9 10 10 10 10 10 11 11 11 11 11 11 11 11 11 11 11 11 11 11 11 11 10 10 10 10 10
13 13 14 14 13 12 12 12 12 12 12 12 11 11 11 10 10 9 9 9 9 9 10 9 9 9 10 10 10 10 10 10 10 11 11 11 11 11 11 11 11 11 11 11 10 10 10 10 10
13 13 14 14 13 12 11 11 12 11 12 12 12 10 11 10 10 9 9 8 8 9 8 9 9 8 9 9 9 10 10 10 10 10 10 10 10 10 10 10 10 10 10 10 10 10 10 10 10
12 13 13 13 13 12 12 11 12 12 13 12 12 11 11 10 10 9 9 8 6 7 6 7 7 6 7 7 8 8 9 9 10 10 10 9 10 10 10 10 10 10 10 10 10 10 10 10 10
12 13 13 12 12 12 12 11 11 12 12 12 12 11 11 10 10 8 7 6 7 7 8 7 8 7 8 8 8 9 8 8 8 9 9 8 9 9 9 9 9 9 9 9 9 9 9 10 10
12 12 12 12 12 11 12 12 11 10 11 12 11 11 11 10 10 10 9 9 9 9 8 7 7 7 7 7 8 8 8 7 7 7 7 8 7 8 9 9 9 9 8 8 9 9 9 9 9
12 12 12 12 12 12 12 12 12 11 11 11 11 10 10 10 10 10 9 9 9 9 8 7 7 7 7 7 8 8 8 8 8 7 8 7 6 7 7 7 8 8 8 8 8 8 8 8 8
11 11 12 12 12 12 12 12 12 11 11 11 10 10 10 10 9 9 9 9 8 8 8 8 8 8 8 8 8 7 7 7 7 7 7 7 7 6 6 6 7 8 8 7 7 7 7 7 7
11 11 11 11 12 12 11 11 12 11 11 10 10 10 10 10 9 9 9 8 8 8 8 8 8 8 8 8 8 8 8 7 7 7 7 7 7 7 6 6 6 6 7 6 7 7 7 7 7
11 11 11 11 11 11 11 11 11 11 10 10 10 10 9 9 9 9 8 8 8 8 8 7 7 8 8 8 8 8 7 7 7 7 7 7 7 7 7 6 6 6 6 6 6 6 6 6 6
11 11 11 11 11 11 11 11 11 11 10 10 10 10 10 9 9 9 8 8 8 8 7 7 7 7 7 7 7 7 7 7 7 7 7 7 7 7 6 6 6 6 6 5 5 6 5 5 5
11 11 10 10 10 11 10 11 10 10 9 9 9 10 9 9 9 9 8 7 7 7 7 6 6 6 6 6 6 6 6 6 6 6 6 6 6 6 6 6 6 6 6 6 6 5 5 5 4
10 11 12 11 11 10 10 10 9 9 9 9 9 9 9 9 9 8 7 7 7 7 7 7 7 7 7 7 7 6 6 6 6 6 6 6 6 6 6 6 6 5 6 6 5 6 5 5 5
12 11 12 12 11 10 9 10 8 8 9 8 8 8 8 8 8 8 7 7 6 7 7 7 7 7 7 6 6 6 6 6 5 5 5 5 5 5 6 6 6 5 5 5 5 5 5 5 5
11 11 11 11 10 10 9 9 8 8 9 9 9 7 7 7 8 7 7 6 6 6 6 6 6 6 6 6 5 5 5 5 5 5 5 5 5 5 5 4 4 4 4 5 5 5 6 5 4
10 9 10 10 10 9 9 10 9 8 9 8 8 7 6 5 7 7 7 6 6 6 6 6 5 5 5 5 6 6 6 6 6 6 6 6 5 5 5 4 4 5 5 4 4 4 4 4 4
9 9 9 9 9 8 9 9 11 9 9 9 8 7 6 5 6 6 7 7 6 5 5 5 4 4 5 5 5 5 5 5 5 5 5 5 4 4 4 4 4 4 3 3 3 3 3 3 3
8 9 8 8 7 8 8 8 9 10 10 10 10 9 7 7 6 5 5 5 5 5 4 4 4 4 3 4 3 3 4 4 4 4 4 4 3 3 3 3 3 3 3 3 2 1 1 1 1
7 8 8 8 7 6 8 8 9 9 9 10 10 9 8 7 7 6 6 5 5 4 4 3 3 3 3 3 3 3 3 3 3 3 3 3 2 2 2 2 1 1 1 1 0 1 -0 -1 -1
7 7 8 6 6 6 10 9 10 9 10 9 9 9 8 8 7 6 6 5 4 4 4 3 3 3 3 2 2 2 2 2 2 2 2 2 2 1 1 1 0 -0 -1 -1 -2 -2 -2 -2 -3
7 7 8 6 5 8 9 8 10 9 9 8 8 8 7 7 6 5 5 4 4 3 3 2 2 2 2 1 1 1 1 1 1 1 0 0 0 0 0 -1 -1 -1 -2 -3 -3 -3 -4 -4 -3
6 6 7 7 8 9 8 8 10 9 9 8 7 7 6 6 5 5 4 4 3 3 2 2 2 1 1 0 0 0 0 0 -0 -1 -1 -0 -1 -1 -1 -2 -2 -3 -3 -3 -4 -4 -5 -5 -5
6 6 7 7 8 9 10 9 10 9 9 8 7 6 5 5 5 4 4 3 2 2 1 1 1 0 -0 -0 -0 -0 -1 -1 -1 -1 -1 -1 -1 -2 -2 -3 -4 -4 -4 -5 -5 -5 -5 -6 -6
6 7 6 6 6 7 11 10 7 7 7 7 7 5 4 4 3 3 2 2 1 1 1 0 -0 -0 -1 -1 -1 -1 -1 -1 -1 -2 -2 -2 -3 -4 -4 -4 -5 -5 -5 -6 -6 -6 -7 -7 -7
6 6 6 6 7 6 5 8 7 6 6 5 5 4 3 2 2 2 2 1 1 0 0 -0 -1 -1 -1 -1 -1 -1 -2 -2 -2 -3 -3 -4 -4 -5 -5 -6 -6 -6 -6 -6 -7 -7 -9 -9 -9
6 6 6 6 7 6 7 6 7 7 6 5 4 3 3 2 1 0 0 -0 -0 0 -1 -2 -2 -1 -1 -2 -2 -2 -3 -3 -3 -4 -5 -6 -6 -6 -7 -6 -7 -7 -7 -8 -8 -10 -10 -10 -9

GFSSGP_700_temp_051.txt.gz
Temp
13 13 13 13 13 13 13 12 12 13 12 12 12 12 12 11 11 11 10 10 10 10 11 11 11 12 12 12 12 12 11 11 11 11 11 11 11 11 11 11 11 11 10 10 10 10 10 10 10
13 13 13 13 13 12 12 12 12 12 12 12 12 12 12 12 11 10 10 10 10 10 11 11 11 11 12 12 12 12 11 11 11 11 11 11 11 11 11 11 11 11 11 10 10 10 10 9 9
13 13 12 12 12 11 12 12 12 12 12 12 12 12 12 11 9 10 9 10 10 10 10 10 10 11 11 11 11 11 11 11 11 11 11 11 11 11 11 11 11 10 10 10 10 10 10 10 9
13 13 13 12 12 12 12 12 12 12 12 12 12 12 11 11 10 9 9 10 10 10 10 10 10 10 10 10 10 11 11 11 11 11 11 11 11 11 11 11 11 10 10 10 10 10 10 10 10
13 13 13 13 12 12 12 12 12 12 12 12 12 11 11 11 10 9 9 10 10 9 9 9 9 9 10 10 10 10 10 10 10 10 10 10 10 10 10 10 10 10 10 10 10 10 10 10 10
13 13 13 12 12 12 12 12 12 12 12 12 11 11 11 10 10 9 8 9 10 8 8 8 8 9 9 9 9 10 10 10 10 10 10 10 10 10 10 10 10 10 10 10 10 10 10 10 9
13 13 13 13 12 12 12 12 12 12 12 12 12 11 11 10 9 9 7 7 8 8 9 7 7 8 8 9 9 9 9 9 10 10 10 9 9 9 9 9 10 10 10 10 10 10 10 10 10
13 13 13 13 12 12 12 12 12 12 12 12 12 12 11 10 9 9 7 6 6 6 8 6 8 8 7 7 8 8 8 9 9 9 9 9 9 9 9 8 9 9 9 9 9 9 9 9 10
12 12 12 12 12 12 12 12 12 12 12 12 11 11 11 10 10 9 9 8 7 7 6 7 7 8 8 8 8 8 7 7 7 8 8 7 7 8 8 9 9 9 9 9 9 9 9 9 9
12 12 12 12 12 12 12 12 11 12 12 12 11 11 11 10 10 10 10 8 8 8 7 6 6 6 7 8 8 8 8 8 7 8 7 7 7 8 8 8 8 8 8 8 8 8 8 8 8
12 12 12 12 12 12 12 12 11 12 12 12 11 11 11 10 10 9 9 9 9 8 8 8 7 6 6 7 8 8 8 8 8 8 7 7 7 7 7 8 8 7 7 7 8 8 8 8 8
11 11 11 11 11 11 12 12 12 11 11 11 10 10 10 10 9 9 9 9 9 9 8 8 8 7 7 7 7 7 7 7 7 8 7 7 7 7 6 6 7 7 8 7 7 7 7 7 7
11 11 11 11 11 12 12 12 11 11 11 11 10 10 10 9 9 9 9 9 9 8 8 8 8 8 7 7 7 7 7 7 7 7 7 7 7 7 7 6 6 6 5 8 8 7 7 7 7
11 11 11 11 12 12 11 11 11 11 11 10 10 9 9 9 9 9 9 9 8 8 8 8 7 7 7 7 7 7 7 7 7 7 7 7 7 7 7 7 6 6 6 6 6 7 7 6 6
11 11 11 12 11 11 11 11 11 11 10 10 10 10 9 9 9 8 8 8 8 8 8 7 7 7 7 7 7 7 7 7 7 7 7 6 6 6 7 7 7 7 6 6 6 6 6 6 6
11 11 11 11 11 11 11 11 11 11 9 9 9 9 9 9 8 8 8 7 7 7 6 6 6 6 6 6 6 6 6 6 6 6 6 6 6 6 6 6 6 6 6 6 6 5 5 5 6
11 11 11 10 10 10 10 10 11 10 9 9 8 9 9 8 9 8 7 7 6 6 6 6 6 6 6 6 6 6 6 6 6 6 6 6 6 6 6 6 6 6 6 6 6 5 5 5 5
10 10 11 10 10 10 10 10 10 10 9 8 8 8 8 8 8 8 7 6 6 6 6 6 6 6 6 6 6 6 6 5 5 5 5 5 5 5 5 5 5 5 5 5 5 6 6 6 5
10 10 10 11 10 10 10 10 10 9 9 9 8 8 8 8 8 7 6 6 6 6 6 6 6 6 6 6 6 5 5 5 5 5 5 5 5 5 5 5 5 5 4 4 4 5 5 5 5
10 10 10 9 9 9 9 9 10 10 10 8 8 7 7 7 8 8 6 6 6 6 6 6 5 6 5 5 5 5 6 5 5 5 5 5 5 5 4 4 5 5 4 4 4 4 4 4 3
10 9 9 8 8 8 9 10 10 11 10 9 8 7 7 7 7 7 7 7 6 6 5 5 5 5 4 4 5 4 4 4 4 4 4 4 3 3 3 3 3 3 3 3 3 3 3 3 3
8 9 8 8 8 8 8 6 9 10 10 10 9 8 8 7 7 7 7 7 7 6 5 5 4 4 4 4 4 4 4 4 4 3 3 3 2 2 2 2 2 2 2 2 2 2 2 2 2
8 8 8 8 7 6 9 7 9 10 10 10 9 9 8 8 8 7 6 6 6 5 4 4 3 3 3 3 3 3 3 3 2 2 2 2 2 2 2 2 2 1 1 1 1 0 -0 -0 0
7 7 7 7 6 4 9 7 9 9 9 9 9 9 8 8 7 6 6 6 5 5 4 4 3 3 3 3 3 2 2 2 1 1 1 1 1 1 1 1 0 0 1 0 -0 -1 -2 -2 -2
7 7 6 5 3 3 9 8 10 9 8 8 9 8 8 7 6 6 6 5 5 4 4 4 3 3 3 2 2 1 1 1 1 1 0 0 0 0 -0 -0 -0 -1 -1 -1 -2 -2 -3 -3 -4
6 6 6 5 3 6 8 8 8 8 8 8 8 7 7 6 5 5 5 5 4 3 3 3 2 2 2 1 1 0 0 -0 -0 -0 -1 -1 -1 -1 -1 -1 -2 -2 -3 -3 -4 -4 -4 -4 -5
6 6 6 6 7 6 8 8 7 8 8 8 7 6 6 5 5 4 4 4 3 3 2 2 1 1 0 0 -0 -1 -1 -1 -1 -1 -1 -2 -2 -2 -2 -2 -3 -4 -4 -5 -5 -5 -5 -6 -5
6 6 6 6 4 5 7 7 7 7 7 6 6 5 4 4 4 4 3 3 2 1 1 1 0 -0 -1 -1 -1 -1 -1 -1 -2 -2 -2 -2 -2 -2 -3 -3 -4 -5 -5 -6 -6 -7 -7 -7 -7
6 5 5 6 6 2 1 6 6 6 6 5 5 4 4 4 3 3 2 1 1 1 0 -0 -1 -1 -2 -2 -2 -2 -2 -2 -3 -3 -3 -3 -3 -3 -4 -4 -5 -6 -6 -6 -7 -7 -8 -8 -8
6 6 5 5 5 5 4 6 6 5 4 3 3 3 3 3 2 1 1 -0 -0 -0 -1 -2 -2 -2 -2 -2 -2 -2 -3 -3 -3 -3 -3 -4 -4 -5 -6 -6 -6 -7 -7 -8 -8 -8 -9 -9 -9

GFSSGP_700_temp_057.txt.gz
Temp
13 13 13 12 12 12 12 12 12 12 12 12 12 12 12 12 11 11 10 10 10 10 9 9 9 9 9 9 9 10 10 10 10 10 10 10 10 10 10 10 10 10 10 10 10 10 10 9 9
13 13 13 13 12 12 11 12 12 12 12 11 11 12 12 12 11 10 10 10 9 9 9 9 9 9 9 9 9 9 10 10 10 10 10 10 10 10 10 10 10 10 10 10 10 9 9 9 9
12 13 13 13 12 12 11 12 12 12 12 11 11 11 11 12 11 11 10 9 9 9 9 9 9 9 9 9 9 9 9 10 10 10 10 10 10 10 10 10 10 9 10 9 9 9 9 9 9
12 12 12 12 12 12 12 12 12 12 11 11 11 12 11 11 11 11 10 9 9 9 9 9 10 10 10 10 10 9 9 9 9 9 9 9 10 10 10 10 10 9 9 9 9 9 9 9 9
12 12 12 12 12 12 12 12 12 12 12 12 12 12 12 12 11 11 10 10 10 10 9 9 9 9 9 9 9 9 9 9 9 9 9 9 9 9 9 9 9 9 9 9 9 9 9 9 9
12 12 12 12 12 12 12 12 12 12 12 12 12 12 11 12 11 11 10 10 10 9 8 8 8 9 9 9 9 8 8 8 8 8 8 8 8 8 8 9 9 9 9 9 9 9 8 8 8
12 12 12 12 12 12 12 12 12 12 12 12 12 11 11 12 11 10 10 9 9 9 8 8 8 8 8 8 8 7 7 8 7 7 7 7 7 8 8 8 8 8 9 8 8 8 8 8 8
12 12 12 12 12 12 12 12 12 12 12 12 12 11 11 11 11 10 9 9 8 9 8 8 8 8 8 7 7 7 7 7 7 7 7 7 6 6 6 6 7 7 7 8 8 8 8 8 7
12 12 12 12 12 12 12 12 12 12 12 12 12 11 11 10 10 10 9 8 9 8 8 8 8 8 8 7 7 7 6 7 6 6 7 7 7 6 6 6 7 6 6 7 7 7 7 7 7
12 12 12 12 12 12 11 11 11 11 11 11 11 11 10 10 10 9 9 8 8 8 7 7 7 7 7 7 7 7 7 7 7 7 7 7 7 7 7 7 7 6 6 6 6 6 6 6 6
12 12 12 12 11 11 11 11 11 11 11 11 11 11 10 10 9 9 9 8 8 8 7 7 6 6 6 6 7 7 7 7 7 7 7 7 7 7 7 7 7 7 7 7 7 7 6 6 6
12 11 11 11 11 11 11 11 11 11 11 11 11 11 10 9 9 9 8 8 8 7 7 6 6 6 6 6 6 6 6 6 7 7 7 7 7 7 7 7 7 7 7 7 7 7 7 7 6
11 11 11 11 11 11 11 11 11 11 11 11 11 10 10 9 9 9 8 8 7 7 7 6 6 6 6 6 6 6 6 6 6 6 6 6 6 6 6 6 6 6 6 6 7 7 7 7 7
11 11 11 11 11 11 11 11 11 11 11 11 10 10 9 9 8 8 8 8 7 7 7 6 6 6 6 6 6 6 6 6 6 6 6 6 6 6 6 6 6 6 6 6 6 6 6 6 7
11 11 11 11 11 11 11 11 11 11 11 10 10 9 9 8 8 8 8 7 7 7 7 7 6 6 5 5 5 5 5 5 6 6 6 6 6 6 6 6 5 5 6 6 6 6 6 6 6
11 10 10 11 11 11 10 11 11 10 10 10 9 9 8 8 8 8 7 7 7 7 7 6 6 5 5 5 5 5 6 6 5 5 6 6 6 6 6 6 6 6 5 5 5 6 6 6 6
10 10 10 10 11 10 10 11 11 10 10 9 9 8 8 8 7 7 7 7 7 6 6 5 5 5 5 5 5 5 5 5 5 5 5 5 5 5 5 5 5 5 5 5 5 5 5 5 5
10 10 10 10 10 10 10 11 10 10 9 9 8 8 8 8 7 6 6 6 6 6 5 5 5 5 5 5 5 5 4 4 4 4 4 4 4 4 4 4 4 4 4 4 4 4 4 4 5
10 10 10 10 10 9 10 10 10 9 9 9 9 8 7 7 6 6 6 6 6 6 6 5 5 5 5 5 4 4 4 4 4 4 4 4 4 4 4 4 3 3 3 3 3 3 3 3 3
10 9 9 9 9 9 9 10 10 10 10 9 9 8 8 7 6 6 5 6 6 6 6 5 5 5 5 5 4 4 4 4 4 3 3 3 3 3 3 3 3 3 3 2 2 2 3 3 3
9 9 9 9 9 8 8 9 10 10 10 10 9 9 8 7 6 5 6 6 6 5 5 5 5 4 4 4 4 4 3 3 3 3 3 3 3 3 2 2 2 2 2 2 2 2 2 2 2
9 9 9 8 7 7 7 6 10 11 10 9 10 9 8 7 6 6 6 6 6 6 5 4 4 4 4 4 3 3 2 2 2 2 2 2 2 2 2 1 1 1 1 1 1 1 1 1 1
8 8 8 7 7 6 8 6 11 10 9 9 9 9 8 7 7 7 6 6 5 5 5 4 4 3 3 3 2 2 1 1 1 1 2 1 1 1 1 1 1 1 1 1 1 1 0 0 0
7 7 6 6 6 4 7 6 9 9 9 8 8 8 8 7 7 7 6 5 5 4 4 3 3 2 2 1 1 1 1 1 1 1 1 1 1 1 0 0 0 -0 -0 -0 -0 -0 -0 -0 -1
6 6 6 4 3 2 6 5 9 8 8 7 7 8 7 7 7 6 5 5 4 3 3 2 2 1 1 1 0 0 0 0 -0 -0 -0 -0 -0 -0 -1 -1 -1 -1 -1 -1 -1 -1 -1 -2 -2
6 6 6 5 2 3 6 7 7 7 7 7 7 7 7 6 6 5 4 3 3 2 1 1 1 1 0 -0 -0 -1 -1 -1 -2 -2 -1 -1 -1 -1 -2 -2 -2 -2 -1 -1 -2 -2 -2 -3 -3
6 5 5 5 4 3 6 7 7 6 6 6 6 6 6 5 5 4 3 2 2 1 1 0 0 -0 -0 -1 -1 -2 -2 -2 -2 -2 -2 -2 -2 -2 -2 -2 -2 -2 -2 -2 -3 -3 -3 -3 -4
6 5 5 5 4 3 4 6 6 6 6 5 5 5 4 3 3 3 2 1 1 0 0 -0 -1 -1 -1 -2 -2 -3 -3 -3 -3 -3 -3 -3 -3 -3 -3 -3 -3 -3 -3 -3 -3 -4 -4 -4 -5
5 4 4 5 4 1 1 5 5 5 5 4 4 4 3 3 2 2 1 1 0 0 -0 -1 -1 -1 -2 -3 -3 -4 -4 -4 -3 -4 -3 -3 -3 -3 -3 -3 -4 -4 -4 -4 -5 -5 -5 -6 -6
5 5 5 4 4 3 2 4 5 4 4 4 3 2 2 2 1 1 0 0 -0 -0 -1 -1 -1 -3 -3 -4 -4 -4 -4 -4 -4 -4 -4 -4 -4 -4 -4 -4 -4 -5 -5 -6 -6 -6 -7 -7 -7

GFSSGP_700_temp_060.txt.gz
Temp
12 12 12 12 12 12 12 11 12 12 11 11 11 11 11 11 11 10 10 10 10 10 9 9 9 9 9 9 9 9 9 9 9 10 10 10 10 10 10 10 10 9 9 9 9 9 9 8 9
13 13 12 12 12 12 11 11 12 11 11 11 11 11 11 12 11 10 10 10 10 10 10 10 10 9 9 9 10 9 9 9 9 9 9 9 10 10 10 10 10 9 9 9 9 9 9 9 9
12 12 12 12 12 12 11 11 12 12 12 11 11 11 11 11 11 11 10 10 10 10 9 9 9 8 9 9 9 9 9 9 9 9 9 9 9 9 9 10 9 9 9 9 9 9 9 9 9
12 12 12 12 12 12 12 11 11 11 11 11 11 11 11 11 11 10 10 10 10 9 9 9 9 9 9 9 9 9 9 9 9 9 9 9 9 9 9 9 9 9 9 9 9 9 9 9 9
12 12 12 12 12 12 12 11 11 11 11 12 12 12 12 12 11 11 11 10 10 10 9 8 8 8 8 8 8 8 8 8 8 8 8 8 8 8 8 8 9 9 9 9 9 9 9 9 9
12 12 12 12 12 12 12 11 11 11 12 12 12 12 12 12 11 11 11 10 10 9 8 8 8 7 8 7 7 7 7 7 7 7 7 7 7 8 8 8 8 8 8 8 8 8 8 8 8
12 12 12 12 12 12 12 12 12 12 12 12 12 12 12 12 11 11 10 10 10 9 8 8 8 7 7 6 6 6 6 6 7 6 6 6 7 6 6 6 7 7 8 7 7 8 8 8 8
12 12 12 12 12 12 12 12 12 12 12 12 12 12 12 12 11 10 9 9 9 9 8 8 8 8 8 7 7 6 6 6 6 7 7 7 6 6 6 6 6 7 6 7 7 7 7 7 7
12 12 12 12 12 12 12 12 12 11 11 11 11 11 11 11 11 10 9 9 8 8 8 8 7 7 7 7 7 6 6 6 6 6 7 7 7 7 7 7 6 7 6 6 6 6 6 7 7
12 12 12 12 12 12 12 11 11 11 11 11 11 11 11 11 11 10 9 9 8 8 7 7 7 7 7 7 7 6 7 6 6 7 7 7 7 7 7 7 7 7 7 6 6 6 6 6 6
11 12 12 12 12 11 11 11 11 11 11 11 11 11 11 10 10 9 9 9 8 7 6 6 6 5 5 6 6 6 6 6 7 7 7 7 7 7 7 7 7 7 7 7 7 7 7 7 6
11 12 11 11 11 11 11 11 11 11 11 11 11 11 10 10 9 9 8 8 8 8 7 6 6 5 5 6 6 6 6 6 6 6 6 6 6 6 6 6 6 6 6 7 7 7 7 7 7
11 11 11 11 11 11 11 10 10 11 11 11 11 10 10 9 9 8 8 8 7 7 6 6 6 6 6 6 6 5 5 5 5 5 5 5 6 6 6 6 6 6 6 6 6 6 6 6 6
11 11 11 11 11 10 10 10 10 11 11 10 10 10 9 9 8 8 7 7 7 6 6 6 6 6 6 6 6 5 5 5 5 5 5 5 5 5 5 5 5 6 6 6 6 6 6 6 6
11 11 11 11 10 10 10 11 11 11 10 10 10 9 9 8 8 8 7 7 7 6 6 6 6 6 5 5 5 5 5 5 5 6 6 5 5 5 5 5 5 5 5 5 6 6 6 6 6
10 10 10 10 10 10 10 11 10 10 10 10 10 9 8 8 7 7 7 6 6 6 6 5 5 5 5 5 5 5 5 5 5 5 5 5 5 5 5 5 5 5 5 5 5 5 5 5 5
10 10 10 10 10 10 10 10 10 10 10 10 9 9 8 8 7 7 6 6 6 6 5 5 5 5 4 4 5 5 5 5 5 4 4 4 4 4 4 4 4 5 5 5 5 5 5 5 5
10 10 10 10 10 10 10 10 10 10 10 9 9 9 8 8 7 6 6 6 5 5 5 4 4 4 4 4 4 4 4 4 4 3 3 3 4 4 4 4 4 4 3 3 3 4 3 3 4
10 10 10 10 10 9 10 10 10 10 10 9 9 9 8 7 6 6 6 5 5 5 4 4 4 4 4 4 4 4 4 3 3 3 3 3 3 3 3 3 3 3 3 2 2 2 2 2 2
10 10 10 9 9 9 9 10 11 10 10 10 9 8 8 7 6 6 5 5 5 5 4 4 4 4 4 4 4 3 3 3 3 3 3 3 2 2 2 2 2 2 2 2 2 2 2 2 2
9 9 9 8 8 8 9 10 10 10 10 9 9 9 8 7 6 5 5 5 5 5 4 4 4 3 3 3 3 3 3 2 2 2 2 2 2 2 2 2 2 2 2 2 1 1 1 1 1
8 8 8 8 8 7 7 6 10 10 9 9 9 9 8 7 6 5 5 5 5 5 4 4 3 3 3 3 3 2 2 1 1 1 1 1 1 1 1 1 1 1 1 1 1 0 0 0 0
8 8 7 7 7 6 7 6 10 8 8 8 9 9 8 8 6 5 5 5 5 4 4 3 3 2 2 2 2 1 1 0 0 1 1 1 0 0 -0 -0 -0 -0 -0 -0 -1 -1 -1 -1 -0
7 7 6 6 6 4 5 5 8 8 8 8 8 8 8 7 7 6 6 5 4 4 3 2 2 1 1 1 1 0 0 0 -0 -0 -0 -0 -1 -1 -1 -1 -1 -2 -2 -2 -2 -2 -1 -1 -1
7 6 6 4 3 2 5 5 8 7 7 7 7 7 8 7 6 6 5 4 3 3 2 1 1 1 1 0 -0 -0 -0 -1 -1 -1 -1 -2 -2 -2 -2 -2 -2 -3 -2 -2 -2 -2 -2 -2 -2
6 6 6 5 3 3 5 6 6 6 6 6 7 6 6 6 5 5 4 3 3 2 2 1 0 0 -0 -0 -1 -1 -1 -1 -2 -2 -3 -3 -3 -3 -3 -3 -3 -3 -3 -3 -3 -3 -3 -3 -3
6 6 5 5 3 2 5 6 6 6 6 6 6 6 5 5 4 4 3 3 2 1 1 0 -0 -1 -1 -1 -1 -1 -2 -3 -3 -3 -4 -4 -4 -4 -4 -4 -4 -4 -4 -3 -3 -3 -3 -3 -4
5 5 5 5 3 3 4 5 5 5 5 5 5 5 4 4 3 3 2 2 1 1 0 -0 -0 -0 -1 -1 -1 -2 -3 -3 -4 -4 -4 -4 -4 -4 -4 -4 -4 -4 -4 -4 -4 -4 -4 -4 -5
5 4 4 4 4 1 0 4 5 5 5 5 5 4 4 3 2 2 2 1 1 1 0 -0 -0 -1 -1 -1 -2 -3 -3 -4 -4 -4 -4 -4 -4 -5 -4 -4 -4 -4 -4 -4 -4 -5 -5 -6 -6
5 5 4 4 3 3 2 4 5 4 4 4 4 3 3 2 2 1 1 0 0 -0 -1 -1 -1 -1 -1 -2 -3 -3 -4 -4 -4 -4 -4 -5 -5 -4 -4 -5 -4 -4 -5 -5 -6 -6 -6 -6 -6